(183736) = 2003 YT112 = 2006 QF138

Discovered at Socorro on 2003-12-23 by LINEAR.

Orbit

Orbit type: Main Belt

Note: WebGL enabled browser required.

epoch2023-09-13.0
epoch JD2460200.5
perihelion date2021-04-16.22917
perihelion JD2459320.72917
argument of perihelion (°)31.73512
ascending node (°)357.16865
inclination (°)3.29318
eccentricity0.1497970
perihelion distance (AU)1.9777817
Tisserand w.r.t. Jupiter3.6
ΔV w.r.t. Earth (km/sec)8.8
semimajor axis (AU)2.3262465
mean anomaly (°)244.39359
mean daily motion (°/day)0.27779230
aphelion distance (AU)2.675
period (years)3.55
P-vector [x]0.87538979
P-vector [y]0.43064071
P-vector [z]0.21963901
Q-vector [x]-0.48340942
Q-vector [y]0.78247279
Q-vector [z]0.39249416
absolute magnitude17.44
phase slope0.15
uncertainty0
referenceMPEC 2023-P20
observations used342
oppositions14
arc length (days)8717
first opposition used1999
last opposition used2023
residual rms (arc-secs)0.75
perturbers coarse indicatorM-v
perturbers precise indicator003Ek
first observation date used1999-08-07.0
last observation date used2023-06-19.0
computer nameMPCLINUX
JD of orbit computation2456523.317113
perihelion JD uncertainty (days)8.1660E-05
argument of perihelion uncertainty (°)1.0120E-04
ascending node uncertainty (°)9.8527E-05
inclination uncertainty (°)5.1658E-06
eccentricity uncertainty 4.6207E-08
perihelion distance uncertainty (AU)1.0691E-07
Minimum Orbit Intersection Distances (in AU)
for orbit epoch: 2460200.5, reference: E2023-P20
Mercury1.64429
Venus1.25646
Earth0.9825
Mars0.52419
Jupiter2.76564
Saturn6.80569
Uranus15.8483
Neptune27.8638

Observations

348 total observations over interval: 1999 08 07.41831 – 2023 06 19.312932
These data are available for download (format description).

Date (UT) J2000 RA J2000 Dec Magn Location Ref
1999 08 07.41831 23 35 55.97 -04 59 32.8 20.3 V 691 – Steward Observatory, Kitt Peak-Spacewatch MPS 178439
1999 08 07.44528 23 35 55.49 -04 59 33.9 20.2 V 691 – Steward Observatory, Kitt Peak-Spacewatch MPS 178439
1999 08 07.47167 23 35 55.06 -04 59 33.8 20.4 V 691 – Steward Observatory, Kitt Peak-Spacewatch MPS 178439
1999 08 21.41333 23 29 30.75 -05 19 35.2 20.2 V 691 – Steward Observatory, Kitt Peak-Spacewatch MPS 178439
1999 08 21.43928 23 29 29.65 -05 19 38.4 20.3 V 691 – Steward Observatory, Kitt Peak-Spacewatch MPS 178439
1999 08 21.46511 23 29 28.59 -05 19 41.9 20.4 V 691 – Steward Observatory, Kitt Peak-Spacewatch MPS 178439
2003 12 17.88970 05 26 13.20 +29 24 57.1 19.0 R A35 – Hormersdorf Observatory MPS 96410
2003 12 17.89154 05 26 13.04 +29 24 56.9 19.0 R A35 – Hormersdorf Observatory MPS 96410
2003 12 18.27893 05 25 45.37 +29 24 29.8 19.1   704 – Lincoln Laboratory ETS, New Mexico MPS 96410
2003 12 18.29483 05 25 44.19 +29 24 29.3 19.7   704 – Lincoln Laboratory ETS, New Mexico MPS 96410
2003 12 18.32069 05 25 42.34 +29 24 26.4 19.9   704 – Lincoln Laboratory ETS, New Mexico MPS 96410
2003 12 18.33354 05 25 41.42 +29 24 24.8 19.8   704 – Lincoln Laboratory ETS, New Mexico MPS 96410
2003 12 18.86326 05 25 04.12 +29 23 41.4 19.2 R A35 – Hormersdorf Observatory MPS 96410
2003 12 18.86876 05 25 03.75 +29 23 41.1 19.0 R A35 – Hormersdorf Observatory MPS 96410
2003 12 18.87560 05 25 03.16 +29 23 39.8 19.3 R A35 – Hormersdorf Observatory MPS 96410
2003 12 23.27975 05 19 59.13 +29 16 41.5 20.0   704 – Lincoln Laboratory ETS, New Mexico MPS 95916
2003 12 23.29270 05 19 58.31 +29 16 39.9 20.1   704 – Lincoln Laboratory ETS, New Mexico MPS 95916
2003 12 23.30588 05 19 57.41 +29 16 38.7 20.1   704 – Lincoln Laboratory ETS, New Mexico MPS 95916
2003 12 27.23553 05 15 44.61 +29 08 40.4 19.8   704 – Lincoln Laboratory ETS, New Mexico MPS 95916
2003 12 27.24912 05 15 43.75 +29 08 38.8 19.7   704 – Lincoln Laboratory ETS, New Mexico MPS 95916
2003 12 27.26195 05 15 42.95 +29 08 37.0 20.1   704 – Lincoln Laboratory ETS, New Mexico MPS 95916
2003 12 27.27508 05 15 42.04 +29 08 35.8 20.2   704 – Lincoln Laboratory ETS, New Mexico MPS 95916
2006 08 16.27287 22 09 46.09 -14 47 55.4 20.0 R 644 – Palomar Mountain/NEAT MPS 177301
2006 08 16.29323 22 09 44.85 -14 47 59.3 19.1 R 644 – Palomar Mountain/NEAT MPS 177301
2006 08 16.31366 22 09 43.62 -14 48 04.8 19.5 R 644 – Palomar Mountain/NEAT MPS 177301
2006 08 18.28507 22 07 48.28 -14 55 11.4 19.4 R 644 – Palomar Mountain/NEAT MPS 177301
2006 08 18.30602 22 07 46.99 -14 55 16.0 19.5 R 644 – Palomar Mountain/NEAT MPS 177301
2006 08 18.32655 22 07 45.72 -14 55 20.5 19.1 R 644 – Palomar Mountain/NEAT MPS 177301
2006 10 22.14949 21 41 37.14 -14 32 07.0 20.7 V G96 – Mt. Lemmon Survey MPS 184042
2006 10 22.15501 21 41 37.24 -14 32 05.4 20.8 V G96 – Mt. Lemmon Survey MPS 184042
2006 10 22.16054 21 41 37.53 -14 32 03.8 21.1 V G96 – Mt. Lemmon Survey MPS 184042
2006 10 22.16611 21 41 37.64 -14 32 02.1 22.1 V G96 – Mt. Lemmon Survey MPS 184042
2008 02 10.23286 10 20 39.99 +13 13 49.3 20.3 V 691 – Steward Observatory, Kitt Peak-Spacewatch MPS 237493
2008 02 10.25051 10 20 38.87 +13 13 54.5 20.3 V 691 – Steward Observatory, Kitt Peak-Spacewatch MPS 237493
2008 02 10.26818 10 20 37.78 +13 13 59.6 20.3 V 691 – Steward Observatory, Kitt Peak-Spacewatch MPS 237493
2008 03 05.24507 09 56 06.50 +14 53 18.0 21.0 V G96 – Mt. Lemmon Survey MPS 240694
2008 03 05.24958 09 56 06.25 +14 53 18.6 20.9 V G96 – Mt. Lemmon Survey MPS 240694
2008 03 05.25395 09 56 06.00 +14 53 19.8 20.8 V G96 – Mt. Lemmon Survey MPS 240694
2008 03 05.25833 09 56 05.74 +14 53 20.0 21.0 V G96 – Mt. Lemmon Survey MPS 240694
2008 03 29.20756 09 41 20.11 +15 26 36.9 21.3 V G96 – Mt. Lemmon Survey MPS 244656
2008 03 29.21755 09 41 19.89 +15 26 35.5 21.3 V G96 – Mt. Lemmon Survey MPS 244656
2008 03 29.22762 09 41 19.71 +15 26 36.4 20.8 V G96 – Mt. Lemmon Survey MPS 244656
2008 03 29.23762 09 41 19.57 +15 26 35.6 21.3 V G96 – Mt. Lemmon Survey MPS 244656
2010 09 05.46819 04 05 36.09 +23 22 07.1 20.4 V G96 – Mt. Lemmon Survey MPS 347794
2010 09 05.47395 04 05 36.52 +23 22 08.9 20.9 V G96 – Mt. Lemmon Survey MPS 347794
2010 09 05.47977 04 05 36.99 +23 22 11.0 21.2 V G96 – Mt. Lemmon Survey MPS 347794
2010 09 05.48560 04 05 37.42 +23 22 12.8 21.0 V G96 – Mt. Lemmon Survey MPS 347794
2010 10 11.472928 04 34 35.535 +26 08 13.73 20.60 w F51 – Pan-STARRS 1, Haleakala MPS 365137
2010 10 11.486949 04 34 35.670 +26 08 17.08 20.50 w F51 – Pan-STARRS 1, Haleakala MPS 365137
2010 10 11.501265 04 34 35.800 +26 08 19.92 20.61 w F51 – Pan-STARRS 1, Haleakala MPS 365137
2010 10 11.515349 04 34 35.924 +26 08 23.01 20.52 w F51 – Pan-STARRS 1, Haleakala MPS 365137
2010 11 07.27338 04 25 24.59 +27 06 29.2   691 – Steward Observatory, Kitt Peak-Spacewatch MPS 357176
2010 11 07.29111 04 25 23.65 +27 06 30.2   691 – Steward Observatory, Kitt Peak-Spacewatch MPS 357176
2010 11 07.30881 04 25 22.67 +27 06 30.7   691 – Steward Observatory, Kitt Peak-Spacewatch MPS 357176
2010 11 07.584342 04 25 08.051 +27 06 41.04 20.19 g F51 – Pan-STARRS 1, Haleakala MPS 365137
2010 11 07.587580 04 25 07.903 +27 06 41.06 20.15 g F51 – Pan-STARRS 1, Haleakala MPS 365137
2010 11 07.596211 04 25 07.420 +27 06 41.18 20.05 g F51 – Pan-STARRS 1, Haleakala MPS 365137
2010 11 07.599397 04 25 07.244 +27 06 41.37 20.22 g F51 – Pan-STARRS 1, Haleakala MPS 365137
2010 11 15.25272 04 17 46.49 +27 06 25.6 20.2 V 691 – Steward Observatory, Kitt Peak-Spacewatch MPS 358591
2010 11 15.27045 04 17 45.31 +27 06 24.8 19.5 V 691 – Steward Observatory, Kitt Peak-Spacewatch MPS 358592
2010 11 15.28817 04 17 44.14 +27 06 24.1 19.6 V 691 – Steward Observatory, Kitt Peak-Spacewatch MPS 358592
2010 11 27.38134 04 04 17.40 +26 48 22.9 19.1 V G96 – Mt. Lemmon Survey MPS 362343
2010 11 27.39100 04 04 16.71 +26 48 21.5 19.0 V G96 – Mt. Lemmon Survey MPS 362343
2010 11 27.39779 04 04 16.21 +26 48 21.1 19.0 V 703 – Catalina Sky Survey MPS 362343
2010 11 27.40067 04 04 16.06 +26 48 19.9 19.1 V G96 – Mt. Lemmon Survey MPS 362343
2010 11 27.40476 04 04 15.74 +26 48 19.8 19.3 V 703 – Catalina Sky Survey MPS 362343
2010 11 27.41036 04 04 15.38 +26 48 18.6 19.1 V G96 – Mt. Lemmon Survey MPS 362343
2010 11 27.41170 04 04 15.27 +26 48 18.8 19.1 V 703 – Catalina Sky Survey MPS 362343
2010 11 27.41870 04 04 14.73 +26 48 18.5 19.0 V 703 – Catalina Sky Survey MPS 362343
2010 12 01.26743 03 59 58.24 +26 38 41.7 20.2   704 – Lincoln Laboratory ETS, New Mexico MPS 362343
2010 12 01.27470 03 59 57.76 +26 38 38.5 19.1 V G96 – Mt. Lemmon Survey MPS 362343
2010 12 01.28063 03 59 57.39 +26 38 37.3 19.5   704 – Lincoln Laboratory ETS, New Mexico MPS 362343
2010 12 01.28149 03 59 57.30 +26 38 37.4 19.1 V G96 – Mt. Lemmon Survey MPS 362343
2010 12 01.28831 03 59 56.83 +26 38 36.2 19.1 V G96 – Mt. Lemmon Survey MPS 362343
2010 12 01.29384 03 59 56.52 +26 38 35.3 19.6   704 – Lincoln Laboratory ETS, New Mexico MPS 362343
2010 12 01.29519 03 59 56.36 +26 38 35.3 19.2 V G96 – Mt. Lemmon Survey MPS 362343
2010 12 01.30708 03 59 55.57 +26 38 33.1 19.3   704 – Lincoln Laboratory ETS, New Mexico MPS 362343
2010 12 07.26780 03 53 42.67 +26 21 04.0 19.8   704 – Lincoln Laboratory ETS, New Mexico MPS 362343
2010 12 07.28091 03 53 41.89 +26 21 00.5 20.2   704 – Lincoln Laboratory ETS, New Mexico MPS 362343
2010 12 07.29400 03 53 41.08 +26 20 59.5 19.9   704 – Lincoln Laboratory ETS, New Mexico MPS 362343
2010 12 07.30718 03 53 40.27 +26 20 56.1 20.2   704 – Lincoln Laboratory ETS, New Mexico MPS 362343
2010 12 08.28253 03 52 43.50 +26 17 52.0 19.6 V 703 – Catalina Sky Survey MPS 362343
2010 12 08.28834 03 52 43.17 +26 17 49.2 18.5 V 703 – Catalina Sky Survey MPS 362343
2010 12 08.29411 03 52 42.92 +26 17 48.6 18.9 V 703 – Catalina Sky Survey MPS 362343
2010 12 08.29992 03 52 42.49 +26 17 47.9 19.6 V 703 – Catalina Sky Survey MPS 362343
2012 04 01.28017 13 05 32.96 -08 47 44.4 20.9 V G96 – Mt. Lemmon Survey MPS 419943
2012 04 01.28768 13 05 32.53 -08 47 42.3 20.8 V G96 – Mt. Lemmon Survey MPS 419943
2012 04 01.29513 13 05 32.06 -08 47 40.4 21.2 V G96 – Mt. Lemmon Survey MPS 419943
2012 04 01.30259 13 05 31.63 -08 47 37.9 21.0 V G96 – Mt. Lemmon Survey MPS 419943
